SCP
-0 0 -0 -0 -0 0 0 0 -0 -0 -0 -0 0 0 0 0 -0 0 0 0 0 0 0 0 0 0 0 0 0 0 0 0 0 0 0 0 0 0 0 0 0 0 0 0 0 0 0 0 0 0 0 0 0 0
0 -0 0 -0 -0 -0 -0 0 0 0 0 0 0 0 0 0 -0 0 0 0 0 0 0 0 0 0 0 0 0 0 0 0 0 0 0 0 0 0 0 0 0 0 0 0 0 0 0 0 0 0 0 0 0 0
0 0 0 0 -0 -0 -0 -0 -0 -0 -0 0 0 0 0 0 0 -0 0 0 0 0 0 0 0 0 0 0 0 0 0 0 0 0 0 0 0 0 0 0 0 0 0 0 0 0 0 0 0 0 0 0 0 0
0 0 -0 0 0 0 0 0 -0 0 0 -0 -0 -0 -0 0 0 0 0 0 0 0 0 0 0 0 0 0 0 0 0 0 0 0 0 0 0 0 0 0 0 0 0 0 0 0 0 0 0 0 0 0 0 0
-0 -0 0 -0 -0 0 0 0 0 -0 0 -0 0 -0 -0 0 0 0 -0 0 0 0 0 0 0 0 0 0 0 0 0 0 0 0 0 0 0 0 0 0 0 0 0 0 0 0 0 0 0 0 0 0 0 0
-0 -0 -0 -0 -0 -0 -0 -0 -0 0 -0 0 0 0 0 0 0 0 0 0 0 0 0 0 0 0 0 0 0 0 0 0 0 0 0 0 0 0 0 0 0 0 0 0 0 0 0 0 0 0 0 0 0 0
-0 -0 -0 -0 -0 -0 -0 -0 -0 0 0 -0 0 0 0 0 0 0 0 0 0 0 0 0 0 0 0 0 0 0 0 0 0 0 0 0 0 0 0 0 0 0 0 0 0 0 0 0 0 0 0 0 0 0
-0 -0 -0 -0 -0 -0 -0 -0 -0 0 0 -0 0 -0 0 -0 0 0 0 0 0 0 0 0 0 0 0 0 0 0 0 0 0 0 0 0 0 0 0 0 0 0 0 0 0 0 0 0 0 0 0 0 0 0
-0 -0 -0 -0 -0 -0 -0 -0 -0 0 -0 -0 -0 -0 0 0 0 0 0 0 0 0 0 0 0 0 0 0 0 0 0 0 0 0 0 0 0 0 0 0 0 0 0 0 0 0 0 0 0 0 0 0 0 0
-0 -0 -0 -0 -0 -0 -0 -0 -0 -0 -0 -0 -0 -0 -0 -0 -0 0 0 0 0 0 0 0 0 0 0 0 0 0 0 0 0 0 0 0 0 0 0 0 0 0 0 0 0 0 0 0 0 0 0 0 0 0
0 0 -0 -0 -0 0 -0 -0 -0 0 0 0 0 0 -0 0 0 0 0 0 0 0 0 0 0 0 0 0 0 0 0 0 0 0 0 0 0 0 0 0 0 0 0 0 0 0 0 0 0 0 0 0 0 0
0 0 0 0 0 -0 0 0 0 0 0 0 0 0 0 0 0 0 0 0 0 0 0 0 0 0 0 0 0 0 0 0 0 0 0 0 0 0 0 0 0 0 0 0 0 0 0 0 0 0 0 0 0 0
0 0 0 0 -0 0 0 -0 -0 -0 0 0 -0 0 0 0 0 0 0 0 0 0 0 0 0 0 0 0 0 0 0 0 0 0 0 0 0 0 0 0 0 0 0 0 0 0 0 0 0 0 0 0 0 0
0 0 0 -0 -0 -0 -0 0 -0 0 0 0 0 0 0 0 0 0 0 0 0 0 0 0 0 0 0 0 0 0 0 0 0 0 0 0 0 0 0 0 0 0 0 0 0 0 0 0 0 0 0 0 0 0
-0 0 0 0 -0 -0 -0 0 -0 0 0 0 0 0 0 0 0 0 0 0 0 0 0 0 0 0 0 0 0 0 0 0 0 0 0 0 0 0 0 0 0 0 0 0 0 0 0 0 0 0 0 0 0 0
-0 0 0 -0 -0 -0 -0 0 0 0 0 0 0 0 0 0 0 0 0 0 0 0 0 0 0 0 0 0 0 0 0 0 0 0 0 0 0 0 0 0 0 0 0 0 0 0 0 0 0 0 0 0 0 0
0 0 -0 -0 -0 0 -0 0 0 0 0 0 0 0 0 0 0 0 0 0 0 0 0 0 0 0 0 0 0 0 0 0 0 0 0 0 0 0 0 0 0 0 0 0 0 0 0 0 0 0 0 0 0 0
0 0 -0 -0 0 0 0 0 0 0 0 0 0 0 0 0 0 0 0 0 0 0 0 0 0 0 0 0 0 0 0 0 0 0 0 0 0 0 0 0 0 0 0 0 0 0 0 0 0 0 0 0 0 0
0 0 0 0 0 0 0 0 0 0 0 0 0 0 0 0 0 0 0 0 0 0 0 0 0 0 0 0 0 0 0 0 0 0 0 0 0 0 0 0 0 0 0 0 0 0 0 0 0 0 0 0 0 0
0 0 0 0 0 0 0 0 0 0 0 0 0 0 0 0 0 0 0 0 0 0 0 0 0 0 0 0 0 0 0 0 0 0 0 0 0 0 0 0 0 0 0 0 0 0 0 0 0 0 0 0 0 0
0 0 0 0 0 0 0 0 0 0 0 0 0 0 0 0 0 0 0 0 0 0 0 0 0 0 0 0 0 0 0 0 0 0 0 0 0 0 0 0 0 0 0 0 0 0 0 0 0 0 0 0 0 0
0 0 0 0 0 0 0 0 0 0 0 0 0 0 0 0 0 0 0 0 0 0 0 0 0 0 0 0 0 0 0 0 0 0 0 0 0 0 0 0 0 0 0 0 0 0 0 0 0 0 0 0 0 0
0 0 0 0 0 0 0 0 0 0 0 0 0 0 0 0 0 0 0 0 0 0 0 0 0 0 0 0 0 0 0 0 0 0 0 0 0 0 0 0 0 0 0 0 0 0 0 0 0 0 0 0 0 0
0 0 0 0 0 0 0 0 0 0 0 0 0 0 0 0 0 0 0 0 0 0 0 0 0 0 0 0 0 0 0 0 0 0 0 0 0 0 0 0 0 0 0 0 0 0 0 0 0 0 0 0 0 0
0 0 0 0 0 0 0 0 0 0 0 0 0 0 0 0 0 0 0 0 0 0 0 0 0 0 0 0 0 0 0 0 0 0 0 0 0 0 0 0 0 0 0 0 0 0 0 0 0 0 0 0 0 0
0 0 0 0 0 0 0 0 0 0 0 0 0 0 0 0 0 0 0 0 0 0 0 0 0 0 0 0 0 0 0 0 0 0 0 0 0 0 0 0 0 0 0 0 0 0 0 0 0 0 0 0 0 0
0 0 0 0 0 0 0 0 0 0 0 0 0 0 0 0 0 0 0 0 0 0 0 0 0 0 0 0 0 0 0 0 0 0 0 0 0 0 0 0 0 0 0 0 0 0 0 0 0 0 0 0 0 0
0 0 0 0 0 0 0 0 0 0 0 0 0 0 0 0 0 0 0 0 0 0 0 0 0 0 0 0 0 0 0 0 0 0 0 0 0 0 0 0 0 0 0 0 0 0 0 0 0 0 0 0 0 0
0 0 0 0 0 0 0 0 0 0 0 0 0 0 0 0 0 0 0 0 0 0 0 0 0 0 0 0 0 0 0 0 0 0 0 0 0 0 0 0 0 0 0 0 0 0 0 0 0 0 0 0 0 0
0 0 0 0 0 0 0 0 0 0 0 0 0 0 0 0 0 0 0 0 0 0 0 0 0 0 0 0 0 0 0 0 0 0 0 0 0 0 0 0 0 0 0 0 0 0 0 0 0 0 0 0 0 0
0 0 0 0 0 0 0 0 0 0 0 0 0 0 0 0 0 0 0 0 0 0 0 0 0 0 0 0 0 0 0 0 0 0 0 0 0 0 0 0 0 0 0 0 0 0 0 0 0 0 0 0 0 0
0 0 0 0 0 0 0 0 0 0 0 0 0 0 0 0 0 0 0 0 0 0 0 0 0 0 0 0 0 0 0 0 0 0 0 0 0 0 0 0 0 0 0 0 0 0 0 0 0 0 0 0 0 0
0 0 0 0 0 0 0 0 0 0 0 0 0 0 0 0 0 0 0 0 0 0 0 0 0 0 0 0 0 -0 -0 -0 -0 0 0 0 0 0 0 0 0 0 0 0 0 0 0 0 0 0 0 0 0 0
Wind_Speed_500mb
107 106 73 73 77 77 77 99 91 86 86 74 62 41 23 11 12 12 10 21 19 13 33 21 22 17 35 20 16 23 17 3 5 8 6 6 7 10 7 9 13 12 13 7 6 3 15 19 6 9 14 18 24 21
95 94 99 65 57 58 58 56 55 63 59 50 42 30 23 25 21 8 15 16 32 25 26 49 42 30 31 25 34 8 6 8 13 9 3 7 5 5 11 12 5 4 12 11 9 7 10 19 26 19 21 24 13 12
87 90 84 89 63 41 40 32 32 36 33 30 25 14 6 15 38 26 35 41 50 39 38 26 25 30 21 26 28 9 6 11 8 13 9 5 8 6 8 8 8 4 7 7 10 9 15 19 22 22 20 18 10 9
80 84 83 77 74 65 38 31 23 18 9 8 11 9 17 16 21 17 9 15 27 19 10 17 23 24 23 22 18 19 24 23 22 11 6 6 7 9 6 8 7 4 12 14 8 13 17 7 17 16 14 9 7 12
68 72 75 73 66 62 58 50 22 12 7 6 2 2 8 13 8 7 8 17 7 3 11 8 30 27 31 27 25 18 27 29 9 6 8 4 5 7 3 5 1 6 8 11 7 38 9 18 30 20 13 5 8 12
64 63 64 64 64 56 53 50 39 43 52 27 10 10 15 18 19 14 5 22 39 30 16 5 9 27 31 33 33 27 21 16 16 10 5 7 4 4 6 5 3 8 13 11 16 34 30 43 27 15 5 6 7 11
57 58 57 56 55 54 43 38 37 37 26 24 33 32 23 11 17 6 6 16 16 17 13 5 4 14 19 21 20 23 25 19 11 8 8 3 5 7 5 4 16 23 25 37 44 41 27 26 15 10 7 8 11 15
52 51 51 50 49 47 45 31 24 22 26 30 33 33 31 35 32 30 28 16 13 14 14 6 3 8 25 17 9 14 10 13 23 8 6 6 4 7 1 7 35 33 31 30 28 14 27 31 21 17 14 15 16 16
52 52 48 45 42 41 42 40 17 14 14 8 9 14 16 15 12 12 23 24 21 9 12 10 5 2 16 15 11 9 9 6 8 5 5 5 4 5 2 26 43 45 31 38 29 25 29 26 24 21 20 20 17 15
52 52 53 50 42 34 31 37 31 8 4 7 4 5 8 11 6 4 5 3 15 26 21 6 9 4 14 11 9 4 9 3 3 4 12 6 6 3 4 33 41 38 23 38 34 28 29 30 28 25 21 20 18 17
51 50 49 50 49 41 29 23 29 13 8 6 5 8 6 9 6 5 12 19 20 10 19 12 21 5 18 6 1 9 2 4 5 5 4 5 6 5 21 33 33 29 26 25 22 24 28 26 29 26 24 21 18 17
46 50 51 49 47 43 36 22 19 21 18 14 10 9 9 13 11 15 3 8 12 1 13 4 11 10 8 9 3 10 5 6 2 7 6 6 4 14 36 34 31 27 25 24 24 25 29 30 29 27 23 19 15 12
39 41 48 49 48 43 36 27 16 17 12 12 9 10 21 19 20 12 7 8 6 14 17 15 5 8 6 12 11 7 10 2 5 7 6 7 3 30 38 29 26 26 26 26 27 29 29 28 25 21 17 14 9 6
37 37 41 44 43 45 37 27 16 11 9 10 14 15 9 10 2 7 7 6 1 4 13 12 7 8 8 10 1 10 5 5 7 5 9 5 17 39 40 31 30 31 32 31 30 28 26 24 22 18 14 10 6 2
35 33 40 39 43 40 33 26 21 9 12 13 12 6 5 4 2 1 3 5 2 6 9 4 5 5 6 8 5 6 8 4 9 8 6 11 19 42 38 36 33 33 33 33 30 28 25 23 20 16 12 8 6 8
30 31 38 42 43 36 27 15 13 17 12 10 13 12 9 4 3 7 10 6 3 1 5 4 2 8 5 6 7 8 9 10 7 6 12 10 27 37 30 31 30 29 29 28 27 27 26 22 18 14 13 11 11 13
27 24 33 37 40 29 30 7 13 14 11 8 7 17 13 7 8 11 10 6 6 2 2 5 7 10 1 6 4 8 9 7 8 13 13 12 22 26 28 30 33 33 33 32 30 28 24 22 20 19 18 16 16 16
24 26 28 32 36 21 21 13 10 9 12 11 5 13 6 8 11 9 9 10 3 3 5 5 10 5 8 8 8 7 24 16 16 17 15 17 24 30 31 30 32 33 32 32 29 28 28 26 24 23 21 18 18 19
28 25 24 27 30 15 8 8 8 10 6 9 13 21 10 7 9 10 11 10 7 6 7 7 6 7 8 15 17 14 18 20 22 23 25 26 30 31 32 35 35 36 35 34 33 30 28 28 26 24 22 20 20 21
25 23 20 20 22 7 2 6 7 7 9 15 16 17 8 6 13 16 14 13 12 6 3 5 10 13 17 19 13 14 17 20 22 24 26 29 33 36 38 37 37 35 36 37 35 34 32 30 26 24 24 23 21 23
24 13 17 16 9 3 3 7 7 8 15 8 18 16 6 9 8 12 12 17 14 11 7 28 38 29 27 22 20 20 21 21 19 17 15 13 29 35 37 39 39 41 40 36 35 32 32 28 24 29 28 26 24 23
21 18 14 9 7 4 5 4 10 16 9 13 18 10 5 5 9 9 12 17 16 21 25 21 28 28 35 35 32 29 26 24 23 22 20 19 22 35 41 43 45 44 41 37 34 32 27 25 33 31 29 28 26 26
15 10 8 9 7 4 3 17 4 7 6 11 12 2 3 4 7 9 9 16 19 24 33 39 38 30 27 27 29 31 33 33 32 29 27 27 29 30 30 35 40 42 39 35 34 34 31 32 32 31 30 30 28 27
10 8 8 7 9 8 14 5 6 8 9 5 5 4 4 7 6 3 7 12 21 19 19 17 21 27 30 34 36 32 30 33 34 35 36 38 39 38 35 34 36 37 36 35 39 38 36 34 31 31 30 30 29 28
6 9 8 5 7 9 6 3 1 3 6 6 5 3 3 9 2 5 7 12 21 20 21 25 25 28 31 29 27 23 27 34 38 40 38 41 40 39 40 41 40 39 40 41 40 36 33 32 32 30 30 30 29 27
7 9 7 12 5 10 11 9 11 11 7 5 8 6 6 4 3 11 7 10 19 17 18 18 18 22 28 26 28 24 24 29 33 41 41 42 44 44 42 42 40 38 39 38 35 34 33 32 32 31 31 29 29 27
9 9 10 10 9 11 7 6 7 4 9 11 8 8 5 6 11 8 11 15 16 16 16 17 17 16 16 18 21 26 33 37 40 42 39 37 40 42 42 43 39 29 32 31 29 32 30 29 29 28 27 29 27 26
15 14 8 16 11 10 7 6 9 13 8 15 22 10 13 14 9 6 11 9 15 16 15 16 17 23 34 45 50 50 47 43 43 46 46 43 43 40 40 39 37 36 35 31 27 27 28 27 27 26 26 26 27 27
7 11 18 8 7 10 16 14 9 13 17 26 10 8 8 12 10 8 10 14 20 28 32 40 48 54 45 31 28 29 35 40 43 45 47 48 42 36 33 33 32 31 32 33 30 28 27 27 27 28 27 27 28 27
9 23 8 8 9 11 10 16 7 13 20 20 10 10 15 24 28 30 39 50 53 48 42 29 13 16 24 30 33 34 35 35 36 41 41 36 32 24 23 25 28 30 30 32 32 32 33 34 34 30 28 28 27 26
11 19 3 7 5 4 6 11 12 11 11 13 24 25 29 29 42 39 27 15 8 11 5 4 12 17 22 26 32 37 37 34 32 31 33 33 26 16 19 21 25 28 30 32 33 34 37 36 33 29 27 26 25 25
12 10 4 3 4 4 6 5 4 5 6 7 8 10 10 10 11 9 8 14 12 6 4 6 7 10 17 23 26 26 20 13 13 13 17 28 29 29 23 21 20 23 28 31 33 35 34 30 28 27 26 25 25 25
7 9 8 4 3 4 9 6 2 4 6 5 6 6 7 8 14 11 11 21 16 8 4 3 4 10 16 20 23 23 17 11 9 4 3 11 21 24 24 22 25 28 27 24 23 23 24 24 23 24 23 23 24 25
Wind_Direction_500mb
37 41 47 57 65 62 80 98 114 121 130 135 137 140 145 84 76 193 136 139 150 103 42 88 116 119 140 155 155 168 101 63 41 74 107 166 120 208 99 170 172 156 155 166 116 129 268 8 320 195 119 102 115 102
38 41 45 57 68 78 87 93 102 123 125 127 129 141 93 68 40 61 92 112 134 99 105 81 85 97 119 125 140 146 109 127 140 104 95 102 112 140 151 178 171 201 181 176 187 192 72 37 98 97 151 139 126 104
38 39 46 52 64 70 86 97 117 133 137 143 159 173 217 29 23 27 112 116 108 98 65 72 47 77 102 138 140 112 106 140 109 81 132 154 126 133 149 231 103 242 162 111 142 161 132 113 108 110 113 110 96 39
40 40 41 46 53 59 74 75 76 82 97 180 228 268 255 252 348 10 85 120 118 107 89 41 81 72 94 131 138 80 133 137 136 144 109 120 121 198 195 150 140 186 141 122 88 121 117 149 152 138 124 109 56 17
38 41 43 43 45 48 62 65 74 67 30 40 198 274 210 242 91 18 83 82 79 98 128 92 70 71 99 130 158 109 146 148 123 72 50 84 124 114 347 71 173 189 156 170 195 163 133 143 165 155 147 83 23 10
35 37 40 43 45 44 44 50 69 61 58 80 130 144 184 150 151 142 99 82 101 110 99 77 61 43 98 114 125 130 115 97 77 93 100 101 84 130 104 175 73 107 108 111 139 134 126 148 151 149 121 70 41 41
27 31 36 38 40 43 44 45 42 45 61 71 66 81 127 144 185 245 130 119 94 87 88 99 36 16 43 71 81 75 61 63 69 79 57 73 44 53 92 182 148 144 117 118 134 133 115 157 156 147 120 95 83 68
24 23 24 30 35 36 35 38 48 57 62 69 85 100 84 78 92 93 109 104 88 93 80 93 28 34 21 22 42 37 52 38 35 65 42 29 49 37 286 135 155 153 144 138 145 152 142 152 148 139 130 114 103 92
23 23 20 18 20 27 31 30 37 59 82 83 39 24 31 30 54 92 88 72 70 115 108 63 44 80 11 29 28 44 44 63 23 65 28 351 344 223 265 163 168 168 163 163 148 144 144 147 142 141 139 132 124 108
20 19 20 19 14 13 18 28 29 50 92 76 45 33 50 10 17 339 338 16 33 33 48 81 352 353 5 16 31 28 37 67 73 302 333 66 264 305 113 174 172 171 162 161 150 152 157 157 157 151 144 128 115 100
17 16 16 16 15 12 13 19 23 29 80 82 53 53 45 22 24 47 46 39 356 40 24 23 25 346 22 48 302 29 146 18 80 289 100 329 290 190 158 156 165 170 172 179 189 172 167 163 153 143 134 128 120 107
13 15 14 11 12 11 11 20 31 44 50 60 92 78 35 27 43 69 10 357 43 70 349 17 339 8 9 6 89 4 105 28 200 319 63 296 250 172 170 167 169 174 178 179 171 161 154 150 149 149 149 142 129 115
6 11 13 10 11 12 13 16 36 40 43 34 23 41 9 352 44 55 350 343 27 344 356 350 346 356 2 22 64 55 66 220 296 38 237 239 241 174 177 179 180 178 175 176 171 163 155 153 154 155 155 149 137 117
360 359 6 9 9 11 15 22 29 47 58 53 36 24 63 350 28 179 182 199 284 308 339 327 298 32 8 38 118 80 255 64 41 20 243 258 214 177 178 187 191 184 176 175 172 168 164 163 163 164 166 169 176 214
3 360 1 6 8 11 14 27 38 72 61 67 48 58 59 171 190 217 268 304 258 332 358 356 6 341 356 69 34 92 35 292 202 231 239 312 203 186 188 190 187 188 184 179 177 175 175 178 184 189 196 207 237 276
357 4 6 2 0 5 13 30 46 62 64 62 75 96 133 89 257 220 209 209 175 33 2 28 106 52 358 124 62 212 123 222 255 224 293 286 194 195 199 195 191 188 187 182 182 184 188 193 202 212 219 234 255 274
351 351 354 358 358 356 6 26 39 57 68 69 73 115 148 125 143 170 171 168 144 94 143 117 61 215 51 38 302 196 201 217 237 291 290 241 208 208 205 199 196 192 192 192 192 196 200 209 214 220 229 243 262 281
336 338 344 352 355 356 15 41 71 75 73 101 114 154 185 154 144 154 158 156 148 115 131 182 131 93 184 179 262 236 228 249 272 280 277 243 219 212 213 212 204 201 199 200 202 212 219 219 219 222 232 248 265 281
329 327 334 345 354 358 15 42 54 99 103 134 153 159 150 162 191 174 175 176 160 141 150 140 89 203 227 212 218 216 238 258 271 274 262 242 225 222 214 207 205 207 206 211 220 227 229 227 227 231 238 250 265 278
316 313 315 330 344 342 59 63 78 92 141 158 161 173 170 182 177 192 192 186 177 202 183 199 216 216 212 228 234 254 278 282 272 265 262 244 227 216 214 214 213 212 217 222 227 231 234 234 237 240 245 256 268 279
312 301 309 315 309 264 134 134 91 100 133 143 157 159 166 169 193 188 198 197 203 226 239 236 238 243 236 241 243 256 271 271 270 264 269 257 224 221 217 217 218 223 228 234 237 239 240 243 242 247 253 261 272 280
288 288 298 279 243 184 113 115 121 131 137 137 152 174 181 195 194 192 189 196 234 232 216 236 251 253 250 252 254 258 260 252 246 245 242 237 225 224 226 227 228 233 237 241 242 243 247 241 245 252 254 262 273 278
273 267 239 230 199 185 146 156 142 136 119 182 151 117 238 204 188 193 246 230 250 249 238 243 250 254 251 248 248 251 249 245 246 246 244 244 242 243 242 242 242 243 243 242 242 242 242 245 250 254 254 260 269 275
242 244 233 211 188 158 148 142 146 127 130 131 136 214 222 177 173 230 255 252 240 236 230 241 248 253 249 248 250 252 255 253 252 248 245 245 248 249 250 248 245 244 242 239 236 237 241 248 251 253 255 261 268 270
239 232 207 218 156 115 103 105 49 104 182 175 135 253 210 158 140 242 243 262 241 240 231 234 242 248 255 260 257 248 246 249 252 258 256 257 257 253 247 243 244 243 241 241 241 244 246 247 251 254 256 262 266 265
230 210 179 198 175 165 179 156 198 189 149 151 215 138 147 125 148 240 232 242 228 226 232 238 248 249 258 269 272 265 260 255 255 255 255 251 253 254 253 252 253 251 251 251 247 244 243 247 252 252 256 261 262 260
240 224 194 180 162 150 95 107 137 165 174 181 171 159 136 200 237 245 238 236 226 227 238 245 253 262 268 272 277 274 266 259 256 260 261 255 253 253 251 250 252 256 248 248 243 238 242 249 250 251 256 258 260 257
226 179 185 175 176 189 148 163 180 204 188 165 137 180 194 204 235 211 214 240 231 237 249 255 256 276 290 293 291 285 277 274 268 259 256 254 252 252 249 246 241 241 240 237 233 231 235 243 246 251 260 262 256 258
199 179 159 142 165 212 220 198 218 205 179 175 175 206 232 229 234 226 249 257 269 273 274 277 284 289 291 291 293 288 279 271 265 262 260 257 256 255 254 245 241 239 234 231 232 235 240 244 247 253 258 257 253 259
201 175 170 175 182 220 208 202 216 197 198 206 234 265 267 265 276 279 286 284 283 282 279 278 263 281 294 300 300 295 288 277 267 258 259 259 262 253 243 237 234 228 227 230 236 243 249 251 255 257 258 254 252 258
167 188 217 210 258 258 237 221 230 234 237 242 244 257 269 290 295 299 288 279 231 162 174 289 311 313 316 317 314 309 300 282 265 254 243 236 229 225 217 212 212 210 222 233 240 246 250 251 251 250 250 249 252 260
177 176 174 236 263 250 210 219 237 245 247 243 256 249 280 281 269 260 239 198 192 206 286 322 345 356 356 353 349 343 332 280 251 247 243 229 214 202 197 200 211 226 241 245 246 249 248 244 244 246 247 247 254 262
161 183 213 248 245 231 201 195 247 285 251 259 258 262 251 256 254 243 220 203 205 224 208 132 61 26 13 9 12 18 34 78 103 127 182 189 195 202 212 227 243 256 262 254 245 236 236 238 243 245 247 253 261 267
Wind_Speed_850mb
107 106 73 73 77 77 77 99 91 86 86 74 62 41 23 11 12 12 10 21 19 13 33 21 22 17 35 20 16 23 17 3 5 8 6 6 7 10 7 9 13 12 13 7 6 3 15 19 6 9 14 18 24 21
95 94 99 65 57 58 58 56 55 63 59 50 42 30 23 25 21 8 15 16 32 25 26 49 42 30 31 25 34 8 6 8 13 9 3 7 5 5 11 12 5 4 12 11 9 7 10 19 26 19 21 24 13 12
87 90 84 89 63 41 40 32 32 36 33 30 25 14 6 15 38 26 35 41 50 39 38 26 25 30 21 26 28 9 6 11 8 13 9 5 8 6 8 8 8 4 7 7 10 9 15 19 22 22 20 18 10 9
80 84 83 77 74 65 38 31 23 18 9 8 11 9 17 16 21 17 9 15 27 19 10 17 23 24 23 22 18 19 24 23 22 11 6 6 7 9 6 8 7 4 12 14 8 13 17 7 17 16 14 9 7 12
68 72 75 73 66 62 58 50 22 12 7 6 2 2 8 13 8 7 8 17 7 3 11 8 30 27 31 27 25 18 27 29 9 6 8 4 5 7 3 5 1 6 8 11 7 38 9 18 30 20 13 5 8 12
64 63 64 64 64 56 53 50 39 43 52 27 10 10 15 18 19 14 5 22 39 30 16 5 9 27 31 33 33 27 21 16 16 10 5 7 4 4 6 5 3 8 13 11 16 34 30 43 27 15 5 6 7 11
57 58 57 56 55 54 43 38 37 37 26 24 33 32 23 11 17 6 6 16 16 17 13 5 4 14 19 21 20 23 25 19 11 8 8 3 5 7 5 4 16 23 25 37 44 41 27 26 15 10 7 8 11 15
52 51 51 50 49 47 45 31 24 22 26 30 33 33 31 35 32 30 28 16 13 14 14 6 3 8 25 17 9 14 10 13 23 8 6 6 4 7 1 7 35 33 31 30 28 14 27 31 21 17 14 15 16 16
52 52 48 45 42 41 42 40 17 14 14 8 9 14 16 15 12 12 23 24 21 9 12 10 5 2 16 15 11 9 9 6 8 5 5 5 4 5 2 26 43 45 31 38 29 25 29 26 24 21 20 20 17 15
52 52 53 50 42 34 31 37 31 8 4 7 4 5 8 11 6 4 5 3 15 26 21 6 9 4 14 11 9 4 9 3 3 4 12 6 6 3 4 33 41 38 23 38 34 28 29 30 28 25 21 20 18 17
51 50 49 50 49 41 29 23 29 13 8 6 5 8 6 9 6 5 12 19 20 10 19 12 21 5 18 6 1 9 2 4 5 5 4 5 6 5 21 33 33 29 26 25 22 24 28 26 29 26 24 21 18 17
46 50 51 49 47 43 36 22 19 21 18 14 10 9 9 13 11 15 3 8 12 1 13 4 11 10 8 9 3 10 5 6 2 7 6 6 4 14 36 34 31 27 25 24 24 25 29 30 29 27 23 19 15 12
39 41 48 49 48 43 36 27 16 17 12 12 9 10 21 19 20 12 7 8 6 14 17 15 5 8 6 12 11 7 10 2 5 7 6 7 3 30 38 29 26 26 26 26 27 29 29 28 25 21 17 14 9 6
37 37 41 44 43 45 37 27 16 11 9 10 14 15 9 10 2 7 7 6 1 4 13 12 7 8 8 10 1 10 5 5 7 5 9 5 17 39 40 31 30 31 32 31 30 28 26 24 22 18 14 10 6 2
35 33 40 39 43 40 33 26 21 9 12 13 12 6 5 4 2 1 3 5 2 6 9 4 5 5 6 8 5 6 8 4 9 8 6 11 19 42 38 36 33 33 33 33 30 28 25 23 20 16 12 8 6 8
30 31 38 42 43 36 27 15 13 17 12 10 13 12 9 4 3 7 10 6 3 1 5 4 2 8 5 6 7 8 9 10 7 6 12 10 27 37 30 31 30 29 29 28 27 27 26 22 18 14 13 11 11 13
27 24 33 37 40 29 30 7 13 14 11 8 7 17 13 7 8 11 10 6 6 2 2 5 7 10 1 6 4 8 9 7 8 13 13 12 22 26 28 30 33 33 33 32 30 28 24 22 20 19 18 16 16 16
24 26 28 32 36 21 21 13 10 9 12 11 5 13 6 8 11 9 9 10 3 3 5 5 10 5 8 8 8 7 24 16 16 17 15 17 24 30 31 30 32 33 32 32 29 28 28 26 24 23 21 18 18 19
28 25 24 27 30 15 8 8 8 10 6 9 13 21 10 7 9 10 11 10 7 6 7 7 6 7 8 15 17 14 18 20 22 23 25 26 30 31 32 35 35 36 35 34 33 30 28 28 26 24 22 20 20 21
25 23 20 20 22 7 2 6 7 7 9 15 16 17 8 6 13 16 14 13 12 6 3 5 10 13 17 19 13 14 17 20 22 24 26 29 33 36 38 37 37 35 36 37 35 34 32 30 26 24 24 23 21 23
24 13 17 16 9 3 3 7 7 8 15 8 18 16 6 9 8 12 12 17 14 11 7 28 38 29 27 22 20 20 21 21 19 17 15 13 29 35 37 39 39 41 40 36 35 32 32 28 24 29 28 26 24 23
21 18 14 9 7 4 5 4 10 16 9 13 18 10 5 5 9 9 12 17 16 21 25 21 28 28 35 35 32 29 26 24 23 22 20 19 22 35 41 43 45 44 41 37 34 32 27 25 33 31 29 28 26 26
15 10 8 9 7 4 3 17 4 7 6 11 12 2 3 4 7 9 9 16 19 24 33 39 38 30 27 27 29 31 33 33 32 29 27 27 29 30 30 35 40 42 39 35 34 34 31 32 32 31 30 30 28 27
10 8 8 7 9 8 14 5 6 8 9 5 5 4 4 7 6 3 7 12 21 19 19 17 21 27 30 34 36 32 30 33 34 35 36 38 39 38 35 34 36 37 36 35 39 38 36 34 31 31 30 30 29 28
6 9 8 5 7 9 6 3 1 3 6 6 5 3 3 9 2 5 7 12 21 20 21 25 25 28 31 29 27 23 27 34 38 40 38 41 40 39 40 41 40 39 40 41 40 36 33 32 32 30 30 30 29 27
7 9 7 12 5 10 11 9 11 11 7 5 8 6 6 4 3 11 7 10 19 17 18 18 18 22 28 26 28 24 24 29 33 41 41 42 44 44 42 42 40 38 39 38 35 34 33 32 32 31 31 29 29 27
9 9 10 10 9 11 7 6 7 4 9 11 8 8 5 6 11 8 11 15 16 16 16 17 17 16 16 18 21 26 33 37 40 42 39 37 40 42 42 43 39 29 32 31 29 32 30 29 29 28 27 29 27 26
15 14 8 16 11 10 7 6 9 13 8 15 22 10 13 14 9 6 11 9 15 16 15 16 17 23 34 45 50 50 47 43 43 46 46 43 43 40 40 39 37 36 35 31 27 27 28 27 27 26 26 26 27 27
7 11 18 8 7 10 16 14 9 13 17 26 10 8 8 12 10 8 10 14 20 28 32 40 48 54 45 31 28 29 35 40 43 45 47 48 42 36 33 33 32 31 32 33 30 28 27 27 27 28 27 27 28 27
9 23 8 8 9 11 10 16 7 13 20 20 10 10 15 24 28 30 39 50 53 48 42 29 13 16 24 30 33 34 35 35 36 41 41 36 32 24 23 25 28 30 30 32 32 32 33 34 34 30 28 28 27 26
11 19 3 7 5 4 6 11 12 11 11 13 24 25 29 29 42 39 27 15 8 11 5 4 12 17 22 26 32 37 37 34 32 31 33 33 26 16 19 21 25 28 30 32 33 34 37 36 33 29 27 26 25 25
12 10 4 3 4 4 6 5 4 5 6 7 8 10 10 10 11 9 8 14 12 6 4 6 7 10 17 23 26 26 20 13 13 13 17 28 29 29 23 21 20 23 28 31 33 35 34 30 28 27 26 25 25 25
7 9 8 4 3 4 9 6 2 4 6 5 6 6 7 8 14 11 11 21 16 8 4 3 4 10 16 20 23 23 17 11 9 4 3 11 21 24 24 22 25 28 27 24 23 23 24 24 23 24 23 23 24 25
Wind_Direction_850mb
37 41 47 57 65 62 80 98 114 121 130 135 137 140 145 84 76 193 136 139 150 103 42 88 116 119 140 155 155 168 101 63 41 74 107 166 120 208 99 170 172 156 155 166 116 129 268 8 320 195 119 102 115 102
38 41 45 57 68 78 87 93 102 123 125 127 129 141 93 68 40 61 92 112 134 99 105 81 85 97 119 125 140 146 109 127 140 104 95 102 112 140 151 178 171 201 181 176 187 192 72 37 98 97 151 139 126 104
38 39 46 52 64 70 86 97 117 133 137 143 159 173 217 29 23 27 112 116 108 98 65 72 47 77 102 138 140 112 106 140 109 81 132 154 126 133 149 231 103 242 162 111 142 161 132 113 108 110 113 110 96 39
40 40 41 46 53 59 74 75 76 82 97 180 228 268 255 252 348 10 85 120 118 107 89 41 81 72 94 131 138 80 133 137 136 144 109 120 121 198 195 150 140 186 141 122 88 121 117 149 152 138 124 109 56 17
38 41 43 43 45 48 62 65 74 67 30 40 198 274 210 242 91 18 83 82 79 98 128 92 70 71 99 130 158 109 146 148 123 72 50 84 124 114 347 71 173 189 156 170 195 163 133 143 165 155 147 83 23 10
35 37 40 43 45 44 44 50 69 61 58 80 130 144 184 150 151 142 99 82 101 110 99 77 61 43 98 114 125 130 115 97 77 93 100 101 84 130 104 175 73 107 108 111 139 134 126 148 151 149 121 70 41 41
27 31 36 38 40 43 44 45 42 45 61 71 66 81 127 144 185 245 130 119 94 87 88 99 36 16 43 71 81 75 61 63 69 79 57 73 44 53 92 182 148 144 117 118 134 133 115 157 156 147 120 95 83 68
24 23 24 30 35 36 35 38 48 57 62 69 85 100 84 78 92 93 109 104 88 93 80 93 28 34 21 22 42 37 52 38 35 65 42 29 49 37 286 135 155 153 144 138 145 152 142 152 148 139 130 114 103 92
23 23 20 18 20 27 31 30 37 59 82 83 39 24 31 30 54 92 88 72 70 115 108 63 44 80 11 29 28 44 44 63 23 65 28 351 344 223 265 163 168 168 163 163 148 144 144 147 142 141 139 132 124 108
20 19 20 19 14 13 18 28 29 50 92 76 45 33 50 10 17 339 338 16 33 33 48 81 352 353 5 16 31 28 37 67 73 302 333 66 264 305 113 174 172 171 162 161 150 152 157 157 157 151 144 128 115 100
17 16 16 16 15 12 13 19 23 29 80 82 53 53 45 22 24 47 46 39 356 40 24 23 25 346 22 48 302 29 146 18 80 289 100 329 290 190 158 156 165 170 172 179 189 172 167 163 153 143 134 128 120 107
13 15 14 11 12 11 11 20 31 44 50 60 92 78 35 27 43 69 10 357 43 70 349 17 339 8 9 6 89 4 105 28 200 319 63 296 250 172 170 167 169 174 178 179 171 161 154 150 149 149 149 142 129 115
6 11 13 10 11 12 13 16 36 40 43 34 23 41 9 352 44 55 350 343 27 344 356 350 346 356 2 22 64 55 66 220 296 38 237 239 241 174 177 179 180 178 175 176 171 163 155 153 154 155 155 149 137 117
360 359 6 9 9 11 15 22 29 47 58 53 36 24 63 350 28 179 182 199 284 308 339 327 298 32 8 38 118 80 255 64 41 20 243 258 214 177 178 187 191 184 176 175 172 168 164 163 163 164 166 169 176 214
3 360 1 6 8 11 14 27 38 72 61 67 48 58 59 171 190 217 268 304 258 332 358 356 6 341 356 69 34 92 35 292 202 231 239 312 203 186 188 190 187 188 184 179 177 175 175 178 184 189 196 207 237 276
357 4 6 2 0 5 13 30 46 62 64 62 75 96 133 89 257 220 209 209 175 33 2 28 106 52 358 124 62 212 123 222 255 224 293 286 194 195 199 195 191 188 187 182 182 184 188 193 202 212 219 234 255 274
351 351 354 358 358 356 6 26 39 57 68 69 73 115 148 125 143 170 171 168 144 94 143 117 61 215 51 38 302 196 201 217 237 291 290 241 208 208 205 199 196 192 192 192 192 196 200 209 214 220 229 243 262 281
336 338 344 352 355 356 15 41 71 75 73 101 114 154 185 154 144 154 158 156 148 115 131 182 131 93 184 179 262 236 228 249 272 280 277 243 219 212 213 212 204 201 199 200 202 212 219 219 219 222 232 248 265 281
329 327 334 345 354 358 15 42 54 99 103 134 153 159 150 162 191 174 175 176 160 141 150 140 89 203 227 212 218 216 238 258 271 274 262 242 225 222 214 207 205 207 206 211 220 227 229 227 227 231 238 250 265 278
316 313 315 330 344 342 59 63 78 92 141 158 161 173 170 182 177 192 192 186 177 202 183 199 216 216 212 228 234 254 278 282 272 265 262 244 227 216 214 214 213 212 217 222 227 231 234 234 237 240 245 256 268 279
312 301 309 315 309 264 134 134 91 100 133 143 157 159 166 169 193 188 198 197 203 226 239 236 238 243 236 241 243 256 271 271 270 264 269 257 224 221 217 217 218 223 228 234 237 239 240 243 242 247 253 261 272 280
288 288 298 279 243 184 113 115 121 131 137 137 152 174 181 195 194 192 189 196 234 232 216 236 251 253 250 252 254 258 260 252 246 245 242 237 225 224 226 227 228 233 237 241 242 243 247 241 245 252 254 262 273 278
273 267 239 230 199 185 146 156 142 136 119 182 151 117 238 204 188 193 246 230 250 249 238 243 250 254 251 248 248 251 249 245 246 246 244 244 242 243 242 242 242 243 243 242 242 242 242 245 250 254 254 260 269 275
242 244 233 211 188 158 148 142 146 127 130 131 136 214 222 177 173 230 255 252 240 236 230 241 248 253 249 248 250 252 255 253 252 248 245 245 248 249 250 248 245 244 242 239 236 237 241 248 251 253 255 261 268 270
239 232 207 218 156 115 103 105 49 104 182 175 135 253 210 158 140 242 243 262 241 240 231 234 242 248 255 260 257 248 246 249 252 258 256 257 257 253 247 243 244 243 241 241 241 244 246 247 251 254 256 262 266 265
230 210 179 198 175 165 179 156 198 189 149 151 215 138 147 125 148 240 232 242 228 226 232 238 248 249 258 269 272 265 260 255 255 255 255 251 253 254 253 252 253 251 251 251 247 244 243 247 252 252 256 261 262 260
240 224 194 180 162 150 95 107 137 165 174 181 171 159 136 200 237 245 238 236 226 227 238 245 253 262 268 272 277 274 266 259 256 260 261 255 253 253 251 250 252 256 248 248 243 238 242 249 250 251 256 258 260 257
226 179 185 175 176 189 148 163 180 204 188 165 137 180 194 204 235 211 214 240 231 237 249 255 256 276 290 293 291 285 277 274 268 259 256 254 252 252 249 246 241 241 240 237 233 231 235 243 246 251 260 262 256 258
199 179 159 142 165 212 220 198 218 205 179 175 175 206 232 229 234 226 249 257 269 273 274 277 284 289 291 291 293 288 279 271 265 262 260 257 256 255 254 245 241 239 234 231 232 235 240 244 247 253 258 257 253 259
201 175 170 175 182 220 208 202 216 197 198 206 234 265 267 265 276 279 286 284 283 282 279 278 263 281 294 300 300 295 288 277 267 258 259 259 262 253 243 237 234 228 227 230 236 243 249 251 255 257 258 254 252 258
167 188 217 210 258 258 237 221 230 234 237 242 244 257 269 290 295 299 288 279 231 162 174 289 311 313 316 317 314 309 300 282 265 254 243 236 229 225 217 212 212 210 222 233 240 246 250 251 251 250 250 249 252 260
177 176 174 236 263 250 210 219 237 245 247 243 256 249 280 281 269 260 239 198 192 206 286 322 345 356 356 353 349 343 332 280 251 247 243 229 214 202 197 200 211 226 241 245 246 249 248 244 244 246 247 247 254 262
161 183 213 248 245 231 201 195 247 285 251 259 258 262 251 256 254 243 220 203 205 224 208 132 61 26 13 9 12 18 34 78 103 127 182 189 195 202 212 227 243 256 262 254 245 236 236 238 243 245 247 253 261 267